Time,TemperatureF,DewpointF,PressureIn,WindDirection,WindDirectionDegrees,WindSpeedMPH,WindSpeedGustMPH,Humidity,HourlyPrecipIn,Conditions,Clouds,dailyrainin,SoftwareType,DateUTC
2013-01-16 00:03:00,46.0,32.1,30.40,WNW,297,0.0,0.0,58,0.00,,---,0.00,VWS V14.01,2013-01-16 08:03:00,
2013-01-16 00:08:00,45.6,32.1,30.40,WNW,297,0.0,0.0,59,0.00,,---,0.00,VWS V14.01,2013-01-16 08:08:00,
2013-01-16 00:13:00,45.0,31.5,30.40,WNW,297,0.0,0.0,59,0.00,,---,0.00,VWS V14.01,2013-01-16 08:13:00,
2013-01-16 00:18:00,44.8,29.2,30.40,WNW,297,0.0,0.0,54,0.00,,---,0.00,VWS V14.01,2013-01-16 08:18:00,
2013-01-16 00:23:00,44.9,28.4,30.40,WNW,297,0.0,0.0,52,0.00,,---,0.00,VWS V14.01,2013-01-16 08:23:00,
2013-01-16 00:28:00,44.9,28.4,30.40,WNW,297,0.0,0.0,52,0.00,,---,0.00,VWS V14.01,2013-01-16 08:28:00,
2013-01-16 00:33:00,44.7,27.2,30.40,WNW,297,1.0,1.0,50,0.00,,---,0.00,VWS V14.01,2013-01-16 08:33:00,
2013-01-16 00:38:00,44.9,25.9,30.40,WNW,297,0.0,1.0,47,0.00,,---,0.00,VWS V14.01,2013-01-16 08:38:00,
2013-01-16 00:43:00,44.7,25.7,30.40,WNW,297,0.0,1.0,47,0.00,,---,0.00,VWS V14.01,2013-01-16 08:43:00,
2013-01-16 00:48:00,44.7,25.2,30.40,WNW,297,0.0,1.0,46,0.00,,---,0.00,VWS V14.01,2013-01-16 08:48:00,
2013-01-16 00:53:00,44.7,25.2,30.40,WNW,297,0.0,1.0,46,0.00,,---,0.00,VWS V14.01,2013-01-16 08:53:00,
2013-01-16 00:58:00,44.6,26.1,30.40,WNW,297,0.0,1.0,48,0.00,,---,0.00,VWS V14.01,2013-01-16 08:58:00,
2013-01-16 01:03:00,44.1,26.7,30.40,WNW,297,0.0,0.0,50,0.00,,---,0.00,VWS V14.01,2013-01-16 09:03:00,
2013-01-16 01:08:00,43.8,26.4,30.40,WNW,297,0.0,0.0,50,0.00,,---,0.00,VWS V14.01,2013-01-16 09:08:00,
2013-01-16 01:13:00,43.9,26.0,30.40,WNW,297,0.0,1.0,49,0.00,,---,0.00,VWS V14.01,2013-01-16 09:13:00,
2013-01-16 01:18:00,44.7,29.1,30.40,WNW,297,0.0,1.0,54,0.00,,---,0.00,VWS V14.01,2013-01-16 09:18:00,
2013-01-16 01:23:00,46.0,27.9,30.40,WNW,297,0.0,1.0,49,0.00,,---,0.00,VWS V14.01,2013-01-16 09:23:00,
2013-01-16 01:28:00,46.3,25.0,30.40,WNW,297,0.0,1.0,43,0.00,,---,0.00,VWS V14.01,2013-01-16 09:28:00,
2013-01-16 01:33:00,47.0,23.3,30.40,WNW,297,0.0,0.0,39,0.00,,---,0.00,VWS V14.01,2013-01-16 09:33:00,
2013-01-16 01:38:00,46.6,26.4,30.40,WNW,297,0.0,0.0,45,0.00,,---,0.00,VWS V14.01,2013-01-16 09:38:00,
2013-01-16 01:43:00,45.9,23.5,30.39,WNW,297,0.0,0.0,41,0.00,,---,0.00,VWS V14.01,2013-01-16 09:43:00,
2013-01-16 01:48:00,45.8,22.9,30.39,WNW,297,0.0,1.0,40,0.00,,---,0.00,VWS V14.01,2013-01-16 09:48:00,
2013-01-16 01:53:00,46.3,22.7,30.39,WNW,297,0.0,1.0,39,0.00,,---,0.00,VWS V14.01,2013-01-16 09:53:00,
2013-01-16 01:58:00,46.4,23.4,30.39,WNW,297,0.0,1.0,40,0.00,,---,0.00,VWS V14.01,2013-01-16 09:58:00,
2013-01-16 02:03:00,46.1,22.5,30.39,WNW,297,0.0,0.0,39,0.00,,---,0.00,VWS V14.01,2013-01-16 10:03:00,
2013-01-16 02:08:00,45.9,23.0,30.39,WNW,297,0.0,0.0,40,0.00,,---,0.00,VWS V14.01,2013-01-16 10:08:00,
2013-01-16 02:13:00,46.2,22.0,30.39,WNW,297,0.0,0.0,38,0.00,,---,0.00,VWS V14.01,2013-01-16 10:13:00,
2013-01-16 02:18:00,46.7,23.1,30.39,WNW,297,0.0,0.0,39,0.00,,---,0.00,VWS V14.01,2013-01-16 10:18:00,
2013-01-16 02:23:00,46.2,23.2,30.39,WNW,297,0.0,0.0,40,0.00,,---,0.00,VWS V14.01,2013-01-16 10:23:00,
2013-01-16 02:28:00,45.9,23.0,30.39,WNW,297,0.0,0.0,40,0.00,,---,0.00,VWS V14.01,2013-01-16 10:28:00,
2013-01-16 02:33:00,45.5,23.8,30.39,WNW,297,0.0,0.0,42,0.00,,---,0.00,VWS V14.01,2013-01-16 10:33:00,
2013-01-16 02:38:00,45.3,23.0,30.40,WNW,297,0.0,0.0,41,0.00,,---,0.00,VWS V14.01,2013-01-16 10:38:00,
2013-01-16 02:43:00,45.4,24.2,30.39,WNW,297,0.0,0.0,43,0.00,,---,0.00,VWS V14.01,2013-01-16 10:43:00,
2013-01-16 02:48:00,45.6,23.3,30.40,WNW,297,0.0,0.0,41,0.00,,---,0.00,VWS V14.01,2013-01-16 10:48:00,
2013-01-16 02:53:00,45.6,23.3,30.40,WNW,297,0.0,0.0,41,0.00,,---,0.00,VWS V14.01,2013-01-16 10:53:00,
2013-01-16 02:58:00,45.4,23.7,30.40,WNW,297,0.0,0.0,42,0.00,,---,0.00,VWS V14.01,2013-01-16 10:58:00,
2013-01-16 03:03:00,45.1,24.0,30.39,WNW,297,0.0,0.0,43,0.00,,---,0.00,VWS V14.01,2013-01-16 11:03:00,
2013-01-16 03:08:00,44.8,23.7,30.40,WNW,297,0.0,0.0,43,0.00,,---,0.00,VWS V14.01,2013-01-16 11:08:00,
2013-01-16 03:13:00,44.6,24.0,30.40,WNW,297,0.0,0.0,44,0.00,,---,0.00,VWS V14.01,2013-01-16 11:13:00,
2013-01-16 03:18:00,44.7,23.6,30.39,WNW,297,0.0,0.0,43,0.00,,---,0.00,VWS V14.01,2013-01-16 11:18:00,
2013-01-16 03:23:00,45.0,23.9,30.39,WNW,297,0.0,0.0,43,0.00,,---,0.00,VWS V14.01,2013-01-16 11:23:00,
2013-01-16 03:28:00,44.9,23.8,30.39,WNW,297,0.0,0.0,43,0.00,,---,0.00,VWS V14.01,2013-01-16 11:28:00,
2013-01-16 03:33:00,44.9,22.6,30.39,WNW,297,0.0,0.0,41,0.00,,---,0.00,VWS V14.01,2013-01-16 11:33:00,
2013-01-16 03:38:00,45.0,23.3,30.39,WNW,297,0.0,0.0,42,0.00,,---,0.00,VWS V14.01,2013-01-16 11:38:00,
2013-01-16 03:43:00,44.8,23.7,30.39,WNW,297,0.0,0.0,43,0.00,,---,0.00,VWS V14.01,2013-01-16 11:43:00,
2013-01-16 03:48:00,44.8,23.7,30.39,WNW,297,0.0,0.0,43,0.00,,---,0.00,VWS V14.01,2013-01-16 11:48:00,
2013-01-16 03:53:00,44.9,23.8,30.38,WNW,297,0.0,0.0,43,0.00,,---,0.00,VWS V14.01,2013-01-16 11:53:00,
2013-01-16 03:58:00,44.8,23.7,30.38,WNW,297,0.0,0.0,43,0.00,,---,0.00,VWS V14.01,2013-01-16 11:58:00,
2013-01-16 04:03:00,44.9,23.8,30.38,WNW,297,0.0,0.0,43,0.00,,---,0.00,VWS V14.01,2013-01-16 12:03:00,
2013-01-16 04:08:00,45.0,23.9,30.38,WNW,297,0.0,0.0,43,0.00,,---,0.00,VWS V14.01,2013-01-16 12:08:00,
2013-01-16 04:13:00,45.3,24.1,30.38,WNW,297,0.0,0.0,43,0.00,,---,0.00,VWS V14.01,2013-01-16 12:13:00,
2013-01-16 04:18:00,45.2,24.0,30.38,WNW,297,0.0,0.0,43,0.00,,---,0.00,VWS V14.01,2013-01-16 12:18:00,
2013-01-16 04:23:00,44.9,24.9,30.38,WNW,297,0.0,0.0,45,0.00,,---,0.00,VWS V14.01,2013-01-16 12:23:00,
2013-01-16 04:28:00,44.7,24.7,30.38,WNW,297,0.0,1.0,45,0.00,,---,0.00,VWS V14.01,2013-01-16 12:28:00,
2013-01-16 04:33:00,44.8,24.8,30.38,WNW,297,0.0,0.0,45,0.00,,---,0.00,VWS V14.01,2013-01-16 12:33:00,
2013-01-16 04:38:00,45.2,24.6,30.38,WNW,297,0.0,1.0,44,0.00,,---,0.00,VWS V14.01,2013-01-16 12:38:00,
2013-01-16 04:43:00,45.3,24.7,30.38,WNW,297,0.0,1.0,44,0.00,,---,0.00,VWS V14.01,2013-01-16 12:43:00,
2013-01-16 04:48:00,45.6,24.4,30.37,WNW,297,0.0,1.0,43,0.00,,---,0.00,VWS V14.01,2013-01-16 12:48:00,
2013-01-16 04:53:00,45.9,25.2,30.37,WNW,297,0.0,1.0,44,0.00,,---,0.00,VWS V14.01,2013-01-16 12:53:00,
2013-01-16 04:58:00,46.1,24.9,30.37,WNW,297,0.0,1.0,43,0.00,,---,0.00,VWS V14.01,2013-01-16 12:58:00,
2013-01-16 05:03:00,46.0,24.8,30.37,WNW,297,0.0,0.0,43,0.00,,---,0.00,VWS V14.01,2013-01-16 13:03:00,
2013-01-16 05:08:00,45.8,24.6,30.37,WNW,297,0.0,0.0,43,0.00,,---,0.00,VWS V14.01,2013-01-16 13:08:00,
2013-01-16 05:13:00,46.1,24.9,30.37,WNW,297,0.0,0.0,43,0.00,,---,0.00,VWS V14.01,2013-01-16 13:13:00,
2013-01-16 05:18:00,46.3,23.9,30.37,WNW,297,0.0,1.0,41,0.00,,---,0.00,VWS V14.01,2013-01-16 13:18:00,
2013-01-16 05:23:00,46.2,25.5,30.37,WNW,297,0.0,1.0,44,0.00,,---,0.00,VWS V14.01,2013-01-16 13:23:00,
2013-01-16 05:28:00,45.7,24.5,30.37,WNW,297,0.0,1.0,43,0.00,,---,0.00,VWS V14.01,2013-01-16 13:28:00,
2013-01-16 05:33:00,45.4,24.2,30.37,WNW,297,0.0,0.0,43,0.00,,---,0.00,VWS V14.01,2013-01-16 13:33:00,
2013-01-16 05:38:00,45.5,24.3,30.36,WNW,297,0.0,1.0,43,0.00,,---,0.00,VWS V14.01,2013-01-16 13:38:00,
2013-01-16 05:43:00,46.0,24.2,30.37,WNW,297,0.0,1.0,42,0.00,,---,0.00,VWS V14.01,2013-01-16 13:43:00,
2013-01-16 05:48:00,46.3,23.3,30.36,WNW,297,0.0,1.0,40,0.00,,---,0.00,VWS V14.01,2013-01-16 13:48:00,
2013-01-16 05:53:00,47.0,23.3,30.37,WNW,297,0.0,1.0,39,0.00,,---,0.00,VWS V14.01,2013-01-16 13:53:00,
2013-01-16 05:58:00,47.5,23.8,30.37,WNW,297,0.0,1.0,39,0.00,,---,0.00,VWS V14.01,2013-01-16 13:58:00,
2013-01-16 06:03:00,47.4,24.3,30.37,WNW,297,0.0,0.0,40,0.00,,---,0.00,VWS V14.01,2013-01-16 14:03:00,
2013-01-16 06:08:00,46.9,25.6,30.37,WNW,297,0.0,0.0,43,0.00,,---,0.00,VWS V14.01,2013-01-16 14:08:00,
2013-01-16 06:13:00,46.6,23.6,30.37,WNW,297,0.0,1.0,40,0.00,,---,0.00,VWS V14.01,2013-01-16 14:13:00,
2013-01-16 06:18:00,47.1,23.4,30.37,WNW,297,0.0,1.0,39,0.00,,---,0.00,VWS V14.01,2013-01-16 14:18:00,
2013-01-16 06:23:00,47.6,23.9,30.37,WNW,297,0.0,1.0,39,0.00,,---,0.00,VWS V14.01,2013-01-16 14:23:00,
2013-01-16 06:28:00,47.4,24.3,30.37,WNW,297,0.0,1.0,40,0.00,,---,0.00,VWS V14.01,2013-01-16 14:28:00,
2013-01-16 06:33:00,46.9,25.0,30.37,WNW,297,0.0,0.0,42,0.00,,---,0.00,VWS V14.01,2013-01-16 14:33:00,
2013-01-16 06:38:00,46.2,25.0,30.37,WNW,297,0.0,0.0,43,0.00,,---,0.00,VWS V14.01,2013-01-16 14:38:00,
2013-01-16 06:43:00,45.6,25.0,30.37,WNW,297,0.0,0.0,44,0.00,,---,0.00,VWS V14.01,2013-01-16 14:43:00,
2013-01-16 06:47:00,45.2,24.6,30.37,WNW,297,0.0,0.0,44,0.00,,---,0.00,VWS V14.01,2013-01-16 14:47:00,
2013-01-16 06:52:00,45.0,24.4,30.37,WNW,297,0.0,0.0,44,0.00,,---,0.00,VWS V14.01,2013-01-16 14:52:00,
2013-01-16 06:57:00,44.9,24.3,30.38,WNW,297,0.0,0.0,44,0.00,,---,0.00,VWS V14.01,2013-01-16 14:57:00,
2013-01-16 07:02:00,45.5,24.3,30.38,WNW,297,0.0,0.0,43,0.00,,---,0.00,VWS V14.01,2013-01-16 15:02:00,
2013-01-16 07:07:00,45.8,24.6,30.38,WNW,297,0.0,0.0,43,0.00,,---,0.00,VWS V14.01,2013-01-16 15:07:00,
2013-01-16 07:12:00,46.8,24.4,30.38,WNW,297,0.0,0.0,41,0.00,,---,0.00,VWS V14.01,2013-01-16 15:12:00,
2013-01-16 07:17:00,47.6,25.7,30.39,WNW,297,0.0,0.0,42,0.00,,---,0.00,VWS V14.01,2013-01-16 15:17:00,
2013-01-16 07:22:00,48.5,25.3,30.38,WNW,297,0.0,1.0,40,0.00,,---,0.00,VWS V14.01,2013-01-16 15:22:00,
2013-01-16 07:27:00,49.7,24.5,30.39,WNW,297,0.0,1.0,37,0.00,,---,0.00,VWS V14.01,2013-01-16 15:27:00,
2013-01-16 07:32:00,50.7,24.7,30.39,WNW,297,0.0,1.0,36,0.00,,---,0.00,VWS V14.01,2013-01-16 15:32:00,
2013-01-16 07:37:00,51.5,25.5,30.39,WNW,297,0.0,1.0,36,0.00,,---,0.00,VWS V14.01,2013-01-16 15:37:00,
2013-01-16 07:42:00,51.9,29.5,30.39,WNW,297,0.0,1.0,42,0.00,,---,0.00,VWS V14.01,2013-01-16 15:42:00,
2013-01-16 07:47:00,51.8,28.9,30.39,WNW,297,0.0,1.0,41,0.00,,---,0.00,VWS V14.01,2013-01-16 15:47:00,
2013-01-16 07:52:00,51.8,30.0,30.39,WNW,297,0.0,1.0,43,0.00,,---,0.00,VWS V14.01,2013-01-16 15:52:00,
2013-01-16 07:57:00,52.1,30.3,30.39,WNW,297,0.0,1.0,43,0.00,,---,0.00,VWS V14.01,2013-01-16 15:57:00,
2013-01-16 08:02:00,52.9,31.6,30.39,WNW,297,0.0,0.0,44,0.00,,---,0.00,VWS V14.01,2013-01-16 16:02:00,
2013-01-16 08:07:00,53.4,29.7,30.39,WNW,297,0.0,0.0,40,0.00,,---,0.00,VWS V14.01,2013-01-16 16:07:00,
2013-01-16 08:12:00,53.9,27.6,30.39,NNW,345,0.0,1.0,36,0.00,,---,0.00,VWS V14.01,2013-01-16 16:12:00,
2013-01-16 08:17:00,54.5,26.7,30.39,NNW,345,0.0,1.0,34,0.00,,---,0.00,VWS V14.01,2013-01-16 16:17:00,
2013-01-16 08:22:00,55.2,27.3,30.40,NNW,345,0.0,1.0,34,0.00,,---,0.00,VWS V14.01,2013-01-16 16:22:00,
2013-01-16 08:27:00,56.4,27.7,30.40,NNW,345,0.0,1.0,33,0.00,,---,0.00,VWS V14.01,2013-01-16 16:27:00,
2013-01-16 08:32:00,57.5,27.9,30.40,NNW,345,0.0,0.0,32,0.00,,---,0.00,VWS V14.01,2013-01-16 16:32:00,
2013-01-16 08:37:00,58.2,27.7,30.40,NNW,345,0.0,1.0,31,0.00,,---,0.00,VWS V14.01,2013-01-16 16:37:00,
2013-01-16 08:42:00,58.4,27.9,30.40,NNW,345,0.0,1.0,31,0.00,,---,0.00,VWS V14.01,2013-01-16 16:42:00,
2013-01-16 08:47:00,58.7,28.2,30.40,NNW,345,0.0,1.0,31,0.00,,---,0.00,VWS V14.01,2013-01-16 16:47:00,
2013-01-16 08:52:00,59.4,28.0,30.40,North,351,0.0,1.0,30,0.00,,---,0.00,VWS V14.01,2013-01-16 16:52:00,
2013-01-16 08:57:00,60.3,27.9,30.40,North,355,0.0,1.0,29,0.00,,---,0.00,VWS V14.01,2013-01-16 16:57:00,
2013-01-16 09:02:00,61.4,27.1,30.40,ENE,65,0.0,1.0,27,0.00,,---,0.00,VWS V14.01,2013-01-16 17:02:00,
2013-01-16 09:07:00,62.1,27.8,30.39,ENE,65,0.0,1.0,27,0.00,,---,0.00,VWS V14.01,2013-01-16 17:07:00,
2013-01-16 09:12:00,62.5,27.2,30.39,ENE,73,0.0,1.0,26,0.00,,---,0.00,VWS V14.01,2013-01-16 17:12:00,
2013-01-16 09:17:00,62.7,28.3,30.39,ENE,61,0.0,3.0,27,0.00,,---,0.00,VWS V14.01,2013-01-16 17:17:00,
2013-01-16 09:22:00,63.0,29.4,30.39,East,101,0.0,3.0,28,0.00,,---,0.00,VWS V14.01,2013-01-16 17:22:00,
2013-01-16 09:27:00,63.2,29.6,30.39,SE,134,0.0,3.0,28,0.00,,---,0.00,VWS V14.01,2013-01-16 17:27:00,
2013-01-16 09:32:00,62.9,27.5,30.39,ESE,105,0.0,5.0,26,0.00,,---,0.00,VWS V14.01,2013-01-16 17:32:00,
2013-01-16 09:37:00,63.0,27.6,30.39,East,92,0.0,5.0,26,0.00,,---,0.00,VWS V14.01,2013-01-16 17:37:00,
2013-01-16 09:42:00,63.4,27.0,30.38,ESE,104,0.0,5.0,25,0.00,,---,0.00,VWS V14.01,2013-01-16 17:42:00,
2013-01-16 09:47:00,63.3,28.8,30.38,SE,129,0.0,5.0,27,0.00,,---,0.00,VWS V14.01,2013-01-16 17:47:00,
2013-01-16 09:52:00,63.1,28.6,30.38,SSE,168,1.0,5.0,27,0.00,,---,0.00,VWS V14.01,2013-01-16 17:52:00,
2013-01-16 09:57:00,63.4,29.8,30.38,SSE,147,2.0,5.0,28,0.00,,---,0.00,VWS V14.01,2013-01-16 17:57:00,
2013-01-16 10:02:00,63.4,30.6,30.38,SE,144,1.0,2.0,29,0.00,,---,0.00,VWS V14.01,2013-01-16 18:02:00,
2013-01-16 10:07:00,62.9,31.8,30.38,SE,146,1.0,5.0,31,0.00,,---,0.00,VWS V14.01,2013-01-16 18:07:00,
2013-01-16 10:12:00,62.9,31.0,30.38,South,170,0.0,5.0,30,0.00,,---,0.00,VWS V14.01,2013-01-16 18:12:00,
2013-01-16 10:17:00,62.6,31.6,30.37,ESE,111,2.0,5.0,31,0.00,,---,0.00,VWS V14.01,2013-01-16 18:17:00,
2013-01-16 10:24:00,62.9,31.0,30.37,South,181,0.0,0.0,30,0.00,,---,0.00,VWS V14.01,2013-01-16 18:24:00,
2013-01-16 10:29:00,62.7,32.4,30.37,SE,132,4.0,4.0,32,0.00,,---,0.00,VWS V14.01,2013-01-16 18:29:00,
2013-01-16 10:34:00,62.6,32.3,30.36,SSE,168,0.0,6.0,32,0.00,,---,0.00,VWS V14.01,2013-01-16 18:34:00,
2013-01-16 10:39:00,62.6,33.1,30.36,WSW,252,0.0,6.0,33,0.00,,---,0.00,VWS V14.01,2013-01-16 18:39:00,
2013-01-16 10:44:00,62.7,31.6,30.36,South,178,0.0,6.0,31,0.00,,---,0.00,VWS V14.01,2013-01-16 18:44:00,
2013-01-16 10:49:00,63.1,33.6,30.35,SE,142,0.0,6.0,33,0.00,,---,0.00,VWS V14.01,2013-01-16 18:49:00,
2013-01-16 10:54:00,63.4,33.0,30.35,WNW,282,0.0,6.0,32,0.00,,---,0.00,VWS V14.01,2013-01-16 18:54:00,
2013-01-16 10:59:00,64.4,33.1,30.34,SSE,166,1.0,1.0,31,0.00,,---,0.00,VWS V14.01,2013-01-16 18:59:00,
2013-01-16 11:04:00,65.6,33.4,30.34,West,273,0.0,1.0,30,0.00,,---,0.00,VWS V14.01,2013-01-16 19:04:00,
2013-01-16 11:09:00,65.8,32.7,30.34,East,88,0.0,1.0,29,0.00,,---,0.00,VWS V14.01,2013-01-16 19:09:00,
2013-01-16 11:14:00,66.0,31.1,30.33,SSW,201,0.0,8.0,27,0.00,,---,0.00,VWS V14.01,2013-01-16 19:14:00,
2013-01-16 11:19:00,65.8,33.5,30.33,SE,142,0.0,8.0,30,0.00,,---,0.00,VWS V14.01,2013-01-16 19:19:00,
2013-01-16 11:24:00,65.4,32.3,30.32,SE,139,1.0,8.0,29,0.00,,---,0.00,VWS V14.01,2013-01-16 19:24:00,
2013-01-16 11:29:00,65.2,32.2,30.32,South,170,0.0,2.0,29,0.00,,---,0.00,VWS V14.01,2013-01-16 19:29:00,
2013-01-16 11:34:00,65.6,31.6,30.32,NE,36,0.0,3.0,28,0.00,,---,0.00,VWS V14.01,2013-01-16 19:34:00,
2013-01-16 11:39:00,66.2,31.3,30.31,SSW,194,2.0,5.0,27,0.00,,---,0.00,VWS V14.01,2013-01-16 19:39:00,
2013-01-16 11:44:00,66.1,31.2,30.31,West,262,0.0,5.0,27,0.00,,---,0.00,VWS V14.01,2013-01-16 19:44:00,
2013-01-16 11:49:00,66.3,31.4,30.30,SW,222,0.0,6.0,27,0.00,,---,0.00,VWS V14.01,2013-01-16 19:49:00,
2013-01-16 11:54:00,66.3,31.4,30.30,SSW,204,1.0,6.0,27,0.00,,---,0.00,VWS V14.01,2013-01-16 19:54:00,
2013-01-16 11:59:00,66.3,30.4,30.30,West,266,3.0,3.0,26,0.00,,---,0.00,VWS V14.01,2013-01-16 19:59:00,
2013-01-16 12:04:00,66.2,30.3,30.29,West,267,0.0,4.0,26,0.00,,---,0.00,VWS V14.01,2013-01-16 20:04:00,
2013-01-16 12:09:00,67.4,30.4,30.29,North,360,3.0,4.0,25,0.00,,---,0.00,VWS V14.01,2013-01-16 20:09:00,
2013-01-16 12:14:00,67.5,30.5,30.29,SSE,153,0.0,4.0,25,0.00,,---,0.00,VWS V14.01,2013-01-16 20:14:00,
2013-01-16 12:19:00,67.8,29.7,30.28,NNW,343,0.0,4.0,24,0.00,,---,0.00,VWS V14.01,2013-01-16 20:19:00,
2013-01-16 12:24:00,67.3,30.3,30.28,SE,145,4.0,6.0,25,0.00,,---,0.00,VWS V14.01,2013-01-16 20:24:00,
2013-01-16 12:29:00,67.3,30.3,30.28,SSW,195,1.0,1.0,25,0.00,,---,0.00,VWS V14.01,2013-01-16 20:29:00,
2013-01-16 12:34:00,67.9,29.8,30.27,SE,131,8.0,8.0,24,0.00,,---,0.00,VWS V14.01,2013-01-16 20:34:00,
2013-01-16 12:39:00,66.8,28.9,30.27,SSE,155,2.0,8.0,24,0.00,,---,0.00,VWS V14.01,2013-01-16 20:39:00,
2013-01-16 12:44:00,66.8,29.9,30.27,SSE,154,0.0,8.0,25,0.00,,---,0.00,VWS V14.01,2013-01-16 20:44:00,
2013-01-16 12:49:00,67.4,29.4,30.26,West,275,0.0,8.0,24,0.00,,---,0.00,VWS V14.01,2013-01-16 20:49:00,
2013-01-16 12:54:00,67.5,29.5,30.26,NE,44,0.0,8.0,24,0.00,,---,0.00,VWS V14.01,2013-01-16 20:54:00,
2013-01-16 12:59:00,68.4,30.2,30.26,SE,146,0.0,1.0,24,0.00,,---,0.00,VWS V14.01,2013-01-16 20:59:00,
2013-01-16 13:04:00,68.6,29.4,30.26,West,271,0.0,3.0,23,0.00,,---,0.00,VWS V14.01,2013-01-16 21:04:00,
2013-01-16 13:09:00,68.8,28.4,30.25,SSW,205,0.0,4.0,22,0.00,,---,0.00,VWS V14.01,2013-01-16 21:09:00,
2013-01-16 13:14:00,69.2,30.9,30.25,SE,130,1.0,4.0,24,0.00,,---,0.00,VWS V14.01,2013-01-16 21:14:00,
2013-01-16 13:19:00,69.2,29.9,30.25,NW,307,0.0,4.0,23,0.00,,---,0.00,VWS V14.01,2013-01-16 21:19:00,
2013-01-16 13:24:00,69.6,29.1,30.24,NE,47,1.0,5.0,22,0.00,,---,0.00,VWS V14.01,2013-01-16 21:24:00,
2013-01-16 13:29:00,70.0,30.5,30.24,WNW,295,0.0,1.0,23,0.00,,---,0.00,VWS V14.01,2013-01-16 21:29:00,
2013-01-16 13:34:00,70.6,31.0,30.24,WSW,246,1.0,6.0,23,0.00,,---,0.00,VWS V14.01,2013-01-16 21:34:00,
2013-01-16 13:39:00,70.3,29.7,30.24,WSW,254,1.0,6.0,22,0.00,,---,0.00,VWS V14.01,2013-01-16 21:39:00,
2013-01-16 13:44:00,69.9,29.4,30.23,SSE,155,0.0,6.0,22,0.00,,---,0.00,VWS V14.01,2013-01-16 21:44:00,
2013-01-16 13:49:00,69.9,29.4,30.23,NNW,346,0.0,6.0,22,0.00,,---,0.00,VWS V14.01,2013-01-16 21:49:00,
2013-01-16 13:54:00,69.8,30.4,30.23,ESE,123,2.0,6.0,23,0.00,,---,0.00,VWS V14.01,2013-01-16 21:54:00,
2013-01-16 13:59:00,69.5,30.1,30.23,South,190,4.0,4.0,23,0.00,,---,0.00,VWS V14.01,2013-01-16 21:59:00,
2013-01-16 14:04:00,69.5,31.2,30.23,SSE,153,0.0,6.0,24,0.00,,---,0.00,VWS V14.01,2013-01-16 22:04:00,
2013-01-16 14:09:00,69.7,29.2,30.23,SE,135,0.0,6.0,22,0.00,,---,0.00,VWS V14.01,2013-01-16 22:09:00,
2013-01-16 14:14:00,70.2,30.7,30.23,WSW,250,1.0,6.0,23,0.00,,---,0.00,VWS V14.01,2013-01-16 22:14:00,
2013-01-16 14:19:00,70.4,32.9,30.23,East,87,0.0,6.0,25,0.00,,---,0.00,VWS V14.01,2013-01-16 22:19:00,
2013-01-16 14:24:00,70.4,29.8,30.23,North,360,0.0,6.0,22,0.00,,---,0.00,VWS V14.01,2013-01-16 22:24:00,
2013-01-16 14:29:00,70.9,30.2,30.23,ESE,122,0.0,0.0,22,0.00,,---,0.00,VWS V14.01,2013-01-16 22:29:00,
2013-01-16 14:34:00,70.8,27.8,30.23,WSW,241,0.0,4.0,20,0.00,,---,0.00,VWS V14.01,2013-01-16 22:34:00,
2013-01-16 14:39:00,70.4,28.6,30.22,West,272,4.0,4.0,21,0.00,,---,0.00,VWS V14.01,2013-01-16 22:39:00,
2013-01-16 14:44:00,70.2,28.5,30.23,WNW,282,0.0,4.0,21,0.00,,---,0.00,VWS V14.01,2013-01-16 22:44:00,
2013-01-16 14:49:00,69.4,30.0,30.23,NNW,343,0.0,4.0,23,0.00,,---,0.00,VWS V14.01,2013-01-16 22:49:00,
2013-01-16 14:54:00,69.2,29.9,30.23,West,267,0.0,4.0,23,0.00,,---,0.00,VWS V14.01,2013-01-16 22:54:00,
2013-01-16 14:59:00,69.2,28.8,30.23,West,268,1.0,2.0,22,0.00,,---,0.00,VWS V14.01,2013-01-16 22:59:00,
2013-01-16 15:04:00,69.4,28.9,30.22,South,186,4.0,4.0,22,0.00,,---,0.00,VWS V14.01,2013-01-16 23:04:00,
2013-01-16 15:09:00,69.7,30.3,30.22,WNW,284,0.0,6.0,23,0.00,,---,0.00,VWS V14.01,2013-01-16 23:09:00,
2013-01-16 15:14:00,69.6,28.0,30.22,NE,36,0.0,6.0,21,0.00,,---,0.00,VWS V14.01,2013-01-16 23:14:00,
2013-01-16 15:19:00,69.6,28.0,30.22,WSW,239,0.0,6.0,21,0.00,,---,0.00,VWS V14.01,2013-01-16 23:19:00,
2013-01-16 15:24:00,69.8,28.1,30.22,West,266,2.0,6.0,21,0.00,,---,0.00,VWS V14.01,2013-01-16 23:24:00,
2013-01-16 15:29:00,69.4,28.9,30.22,South,169,0.0,0.0,22,0.00,,---,0.00,VWS V14.01,2013-01-16 23:29:00,
2013-01-16 15:34:00,69.1,27.6,30.22,North,355,2.0,4.0,21,0.00,,---,0.00,VWS V14.01,2013-01-16 23:34:00,
2013-01-16 15:39:00,69.0,29.7,30.22,North,355,0.0,4.0,23,0.00,,---,0.00,VWS V14.01,2013-01-16 23:39:00,
2013-01-16 15:44:00,69.4,28.9,30.22,NNE,16,0.0,4.0,22,0.00,,---,0.00,VWS V14.01,2013-01-16 23:44:00,
2013-01-16 15:49:00,68.8,27.3,30.22,WSW,249,0.0,4.0,21,0.00,,---,0.00,VWS V14.01,2013-01-16 23:49:00,
2013-01-16 15:54:00,68.2,26.8,30.22,West,260,0.0,4.0,21,0.00,,---,0.00,VWS V14.01,2013-01-16 23:54:00,
2013-01-16 15:59:00,67.7,30.6,30.22,West,262,0.0,1.0,25,0.00,,---,0.00,VWS V14.01,2013-01-16 23:59:00,
2013-01-16 16:04:00,67.0,31.0,30.22,West,270,0.0,1.0,26,0.00,,---,0.00,VWS V14.01,2013-01-17 00:04:00,
2013-01-16 16:09:00,66.4,31.4,30.22,West,271,0.0,2.0,27,0.00,,---,0.00,VWS V14.01,2013-01-17 00:09:00,
2013-01-16 16:14:00,65.9,31.9,30.22,West,261,0.0,2.0,28,0.00,,---,0.00,VWS V14.01,2013-01-17 00:14:00,
2013-01-16 16:19:00,65.4,31.5,30.22,WSW,247,1.0,2.0,28,0.00,,---,0.00,VWS V14.01,2013-01-17 00:19:00,
2013-01-16 16:24:00,65.0,31.1,30.22,WNW,296,0.0,2.0,28,0.00,,---,0.00,VWS V14.01,2013-01-17 00:24:00,
2013-01-16 16:29:00,64.7,31.7,30.22,WNW,289,3.0,3.0,29,0.00,,---,0.00,VWS V14.01,2013-01-17 00:29:00,
2013-01-16 16:34:00,64.4,31.5,30.22,WNW,292,0.0,3.0,29,0.00,,---,0.00,VWS V14.01,2013-01-17 00:34:00,
2013-01-16 16:39:00,63.9,31.9,30.22,WNW,292,0.0,3.0,30,0.00,,---,0.00,VWS V14.01,2013-01-17 00:39:00,
2013-01-16 16:44:00,63.5,30.7,30.22,West,262,0.0,3.0,29,0.00,,---,0.00,VWS V14.01,2013-01-17 00:44:00,
2013-01-16 16:49:00,63.3,31.4,30.22,West,270,0.0,3.0,30,0.00,,---,0.00,VWS V14.01,2013-01-17 00:49:00,
2013-01-16 16:54:00,62.9,31.0,30.22,West,276,0.0,3.0,30,0.00,,---,0.00,VWS V14.01,2013-01-17 00:54:00,
2013-01-16 16:59:00,62.5,30.7,30.22,West,274,0.0,0.0,30,0.00,,---,0.00,VWS V14.01,2013-01-17 00:59:00,
2013-01-16 17:04:00,62.2,31.2,30.22,ENE,78,0.0,1.0,31,0.00,,---,0.00,VWS V14.01,2013-01-17 01:04:00,
2013-01-16 17:09:00,61.6,31.5,30.22,ENE,62,0.0,1.0,32,0.00,,---,0.00,VWS V14.01,2013-01-17 01:09:00,
2013-01-16 17:14:00,61.0,31.0,30.22,ENE,61,0.0,1.0,32,0.00,,---,0.00,VWS V14.01,2013-01-17 01:14:00,
2013-01-16 17:19:00,60.7,30.7,30.22,West,263,0.0,3.0,32,0.00,,---,0.00,VWS V14.01,2013-01-17 01:19:00,
2013-01-16 17:24:00,60.4,31.9,30.22,West,262,0.0,3.0,34,0.00,,---,0.00,VWS V14.01,2013-01-17 01:24:00,
2013-01-16 17:29:00,59.8,31.4,30.22,West,262,0.0,3.0,34,0.00,,---,0.00,VWS V14.01,2013-01-17 01:29:00,
2013-01-16 17:33:00,59.3,31.7,30.22,West,262,0.0,0.0,35,0.00,,---,0.00,VWS V14.01,2013-01-17 01:33:00,
2013-01-16 17:39:00,58.5,31.7,30.22,West,263,0.0,0.0,36,0.00,,---,0.00,VWS V14.01,2013-01-17 01:39:00,
2013-01-16 17:44:00,58.0,31.9,30.22,West,263,0.0,0.0,37,0.00,,---,0.00,VWS V14.01,2013-01-17 01:44:00,
2013-01-16 17:49:00,57.6,31.5,30.22,West,263,0.0,0.0,37,0.00,,---,0.00,VWS V14.01,2013-01-17 01:49:00,
2013-01-16 17:54:00,57.1,31.8,30.22,West,262,0.0,0.0,38,0.00,,---,0.00,VWS V14.01,2013-01-17 01:54:00,
2013-01-16 17:59:00,56.8,31.5,30.22,West,262,0.0,0.0,38,0.00,,---,0.00,VWS V14.01,2013-01-17 01:59:00,
2013-01-16 18:04:00,56.6,31.3,30.23,West,263,0.0,0.0,38,0.00,,---,0.00,VWS V14.01,2013-01-17 02:04:00,
2013-01-16 18:09:00,56.2,31.6,30.22,West,262,0.0,0.0,39,0.00,,---,0.00,VWS V14.01,2013-01-17 02:09:00,
2013-01-16 18:14:00,56.2,31.6,30.22,West,262,0.0,0.0,39,0.00,,---,0.00,VWS V14.01,2013-01-17 02:14:00,
2013-01-16 18:19:00,56.0,32.0,30.22,West,263,0.0,0.0,40,0.00,,---,0.00,VWS V14.01,2013-01-17 02:19:00,
2013-01-16 18:24:00,55.6,32.3,30.22,West,262,0.0,0.0,41,0.00,,---,0.00,VWS V14.01,2013-01-17 02:24:00,
2013-01-16 18:29:00,55.0,31.1,30.22,WNW,302,0.0,1.0,40,0.00,,---,0.00,VWS V14.01,2013-01-17 02:29:00,
2013-01-16 18:34:00,54.7,32.1,30.22,WNW,302,0.0,0.0,42,0.00,,---,0.00,VWS V14.01,2013-01-17 02:34:00,
2013-01-16 18:38:00,54.3,31.7,30.22,WNW,302,0.0,0.0,42,0.00,,---,0.00,VWS V14.01,2013-01-17 02:38:00,
2013-01-16 18:43:00,53.7,31.8,30.22,WNW,302,0.0,0.0,43,0.00,,---,0.00,VWS V14.01,2013-01-17 02:43:00,
2013-01-16 18:48:00,53.2,31.3,30.22,WNW,302,0.0,0.0,43,0.00,,---,0.00,VWS V14.01,2013-01-17 02:48:00,
2013-01-16 18:53:00,52.9,31.6,30.22,WNW,302,0.0,0.0,44,0.00,,---,0.00,VWS V14.01,2013-01-17 02:53:00,
2013-01-16 18:58:00,52.7,31.4,30.22,WNW,302,0.0,0.0,44,0.00,,---,0.00,VWS V14.01,2013-01-17 02:58:00,
2013-01-16 19:04:00,52.6,30.8,30.22,WNW,302,0.0,1.0,43,0.00,,---,0.00,VWS V14.01,2013-01-17 03:04:00,
2013-01-16 19:09:00,52.6,30.8,30.22,NW,320,0.0,1.0,43,0.00,,---,0.00,VWS V14.01,2013-01-17 03:09:00,
2013-01-16 19:13:00,53.3,30.2,30.22,NNW,331,0.0,3.0,41,0.00,,---,0.00,VWS V14.01,2013-01-17 03:13:00,
2013-01-16 19:18:00,54.1,30.3,30.22,NNW,331,0.0,3.0,40,0.00,,---,0.00,VWS V14.01,2013-01-17 03:18:00,
2013-01-16 19:23:00,54.1,30.9,30.22,NNW,331,0.0,3.0,41,0.00,,---,0.00,VWS V14.01,2013-01-17 03:23:00,
2013-01-16 19:28:00,53.7,31.2,30.22,NNW,331,0.0,3.0,42,0.00,,---,0.00,VWS V14.01,2013-01-17 03:28:00,
2013-01-16 19:33:00,53.0,30.0,30.22,NNW,331,0.0,0.0,41,0.00,,---,0.00,VWS V14.01,2013-01-17 03:33:00,
2013-01-16 19:38:00,52.8,29.8,30.22,NNW,331,0.0,0.0,41,0.00,,---,0.00,VWS V14.01,2013-01-17 03:38:00,
2013-01-16 19:43:00,52.8,29.2,30.21,NNW,331,0.0,0.0,40,0.00,,---,0.00,VWS V14.01,2013-01-17 03:43:00,
2013-01-16 19:48:00,53.1,29.4,30.22,NNW,331,0.0,1.0,40,0.00,,---,0.00,VWS V14.01,2013-01-17 03:48:00,
2013-01-16 19:53:00,54.0,29.6,30.22,NNW,331,0.0,1.0,39,0.00,,---,0.00,VWS V14.01,2013-01-17 03:53:00,
2013-01-16 19:58:00,54.6,30.2,30.21,NNW,331,0.0,1.0,39,0.00,,---,0.00,VWS V14.01,2013-01-17 03:58:00,
2013-01-16 20:03:00,54.6,30.2,30.21,NNW,331,0.0,0.0,39,0.00,,---,0.00,VWS V14.01,2013-01-17 04:03:00,
2013-01-16 20:08:00,54.3,29.9,30.21,NNW,331,0.0,0.0,39,0.00,,---,0.00,VWS V14.01,2013-01-17 04:08:00,
2013-01-16 20:13:00,53.7,30.6,30.21,NNW,331,0.0,0.0,41,0.00,,---,0.00,VWS V14.01,2013-01-17 04:13:00,
2013-01-16 20:18:00,53.2,30.7,30.21,NNW,331,0.0,0.0,42,0.00,,---,0.00,VWS V14.01,2013-01-17 04:18:00,
2013-01-16 20:23:00,52.8,29.8,30.21,NNW,331,0.0,0.0,41,0.00,,---,0.00,VWS V14.01,2013-01-17 04:23:00,
2013-01-16 20:28:00,52.6,30.2,30.21,NNW,331,0.0,0.0,42,0.00,,---,0.00,VWS V14.01,2013-01-17 04:28:00,
2013-01-16 20:33:00,52.4,30.6,30.21,NNW,331,0.0,0.0,43,0.00,,---,0.00,VWS V14.01,2013-01-17 04:33:00,
2013-01-16 20:38:00,52.3,30.5,30.20,NNW,331,0.0,0.0,43,0.00,,---,0.00,VWS V14.01,2013-01-17 04:38:00,
2013-01-16 20:43:00,52.6,30.2,30.20,NNW,331,0.0,1.0,42,0.00,,---,0.00,VWS V14.01,2013-01-17 04:43:00,
2013-01-16 20:48:00,53.2,30.1,30.20,NNW,331,0.0,1.0,41,0.00,,---,0.00,VWS V14.01,2013-01-17 04:48:00,
2013-01-16 20:53:00,54.0,31.5,30.20,NNW,331,0.0,1.0,42,0.00,,---,0.00,VWS V14.01,2013-01-17 04:53:00,
2013-01-16 20:58:00,54.2,31.0,30.20,NNW,331,0.0,1.0,41,0.00,,---,0.00,VWS V14.01,2013-01-17 04:58:00,
2013-01-16 21:01:00,54.1,30.9,30.20,NNW,331,0.0,0.0,41,0.00,,---,0.00,VWS V14.01,2013-01-17 05:01:00,
2013-01-16 21:02:00,54.1,30.9,30.19,NNW,331,0.0,0.0,41,0.00,,---,0.00,VWS V14.01,2013-01-17 05:02:00,
2013-01-16 21:07:00,53.7,31.2,30.19,NNW,331,0.0,0.0,42,0.00,,---,0.00,VWS V14.01,2013-01-17 05:07:00,
2013-01-16 21:12:00,53.4,31.5,30.19,NNW,331,0.0,0.0,43,0.00,,---,0.00,VWS V14.01,2013-01-17 05:12:00,
2013-01-16 21:17:00,53.0,31.7,30.19,NNW,331,0.0,0.0,44,0.00,,---,0.00,VWS V14.01,2013-01-17 05:17:00,
2013-01-16 21:22:00,52.7,31.4,30.19,NNW,331,0.0,0.0,44,0.00,,---,0.00,VWS V14.01,2013-01-17 05:22:00,
2013-01-16 21:27:00,52.6,31.3,30.19,NNW,331,0.0,1.0,44,0.00,,---,0.00,VWS V14.01,2013-01-17 05:27:00,
2013-01-16 21:32:00,53.4,30.9,30.19,NNW,331,0.0,0.0,42,0.00,,---,0.00,VWS V14.01,2013-01-17 05:32:00,
2013-01-16 21:37:00,53.6,31.1,30.19,NNW,331,0.0,0.0,42,0.00,,---,0.00,VWS V14.01,2013-01-17 05:37:00,
2013-01-16 21:42:00,53.4,30.9,30.19,NNW,331,0.0,0.0,42,0.00,,---,0.00,VWS V14.01,2013-01-17 05:42:00,
2013-01-16 21:47:00,53.0,31.1,30.19,NNW,331,0.0,0.0,43,0.00,,---,0.00,VWS V14.01,2013-01-17 05:47:00,
2013-01-16 21:52:00,52.4,31.1,30.19,NNW,331,0.0,0.0,44,0.00,,---,0.00,VWS V14.01,2013-01-17 05:52:00,
2013-01-16 21:57:00,51.9,30.1,30.19,NNW,331,0.0,0.0,43,0.00,,---,0.00,VWS V14.01,2013-01-17 05:57:00,
2013-01-16 22:02:00,51.9,28.4,30.19,NNW,331,0.0,0.0,40,0.00,,---,0.00,VWS V14.01,2013-01-17 06:02:00,
2013-01-16 22:07:00,52.0,29.0,30.19,NNW,331,0.0,0.0,41,0.00,,---,0.00,VWS V14.01,2013-01-17 06:07:00,
2013-01-16 22:12:00,52.1,29.7,30.19,NNW,331,0.0,0.0,42,0.00,,---,0.00,VWS V14.01,2013-01-17 06:12:00,
2013-01-16 22:17:00,52.2,28.6,30.18,NNW,331,0.0,1.0,40,0.00,,---,0.00,VWS V14.01,2013-01-17 06:17:00,
2013-01-16 22:22:00,53.1,28.8,30.18,NNW,331,0.0,1.0,39,0.00,,---,0.00,VWS V14.01,2013-01-17 06:22:00,
2013-01-16 22:27:00,53.5,29.2,30.18,NNW,331,0.0,1.0,39,0.00,,---,0.00,VWS V14.01,2013-01-17 06:27:00,
2013-01-16 22:32:00,53.4,28.5,30.18,NNW,331,0.0,0.0,38,0.00,,---,0.00,VWS V14.01,2013-01-17 06:32:00,
2013-01-16 22:37:00,53.5,29.2,30.18,NNW,331,0.0,0.0,39,0.00,,---,0.00,VWS V14.01,2013-01-17 06:37:00,
2013-01-16 22:42:00,53.5,28.5,30.18,NNW,331,0.0,1.0,38,0.00,,---,0.00,VWS V14.01,2013-01-17 06:42:00,
2013-01-16 22:47:00,53.3,27.0,30.19,NNW,331,0.0,1.0,36,0.00,,---,0.00,VWS V14.01,2013-01-17 06:47:00,
2013-01-16 22:52:00,53.7,26.7,30.18,NNW,331,0.0,1.0,35,0.00,,---,0.00,VWS V14.01,2013-01-17 06:52:00,
2013-01-16 22:57:00,54.8,27.0,30.18,NE,40,0.0,1.0,34,0.00,,---,0.00,VWS V14.01,2013-01-17 06:57:00,
2013-01-16 23:02:00,54.4,30.0,30.18,NE,40,0.0,1.0,39,0.00,,---,0.00,VWS V14.01,2013-01-17 07:02:00,
2013-01-16 23:07:00,53.6,28.0,30.18,NNW,332,0.0,3.0,37,0.00,,---,0.00,VWS V14.01,2013-01-17 07:07:00,
2013-01-16 23:12:00,53.6,28.0,30.18,NNE,13,0.0,3.0,37,0.00,,---,0.00,VWS V14.01,2013-01-17 07:12:00,
2013-01-16 23:17:00,54.5,26.7,30.18,NW,324,0.0,4.0,34,0.00,,---,0.00,VWS V14.01,2013-01-17 07:17:00,
2013-01-16 23:22:00,57.5,27.1,30.18,NNW,347,2.0,6.0,31,0.00,,---,0.00,VWS V14.01,2013-01-17 07:22:00,
2013-01-16 23:27:00,59.3,27.9,30.18,NNW,338,4.0,6.0,30,0.00,,---,0.00,VWS V14.01,2013-01-17 07:27:00,
2013-01-16 23:32:00,59.8,29.1,30.18,NNW,331,1.0,9.0,31,0.00,,---,0.00,VWS V14.01,2013-01-17 07:32:00,
2013-01-16 23:37:00,59.7,29.0,30.17,North,355,2.0,9.0,31,0.00,,---,0.00,VWS V14.01,2013-01-17 07:37:00,
2013-01-16 23:42:00,59.5,28.1,30.17,NW,321,0.0,9.0,30,0.00,,---,0.00,VWS V14.01,2013-01-17 07:42:00,
2013-01-16 23:47:00,60.2,27.0,30.17,WNW,301,0.0,9.0,28,0.00,,---,0.00,VWS V14.01,2013-01-17 07:47:00,
2013-01-16 23:52:00,60.7,27.4,30.17,North,355,0.0,9.0,28,0.00,,---,0.00,VWS V14.01,2013-01-17 07:52:00,
2013-01-16 23:57:00,60.2,26.1,30.17,NW,319,0.0,9.0,27,0.00,,---,0.00,VWS V14.01,2013-01-17 07:57:00,